Miscellaneous Local Product
Issued by NWS Hastings, NE

Home | Current Version | Previous Version | Text Only | Print | Product List | Glossary On
Versions: 1 2 3 4 5 6 7 8 9 10 11 12 13 14 15 16 17 18 19 20 21 22 23 24 25 26 27 28 29 30 31 32 33 34 35 36 37 38 39 40 41 42 43 44 45 46 47 48 49 50
000
AXUS43 KGID 232302
MISGRI

GID CWA HOURLY WEATHER ROUNDUP
NATIONAL WEATHER SERVICE HASTINGS NE
600 PM CDT SUN JUL 23 2017

NOTE: "FAIR" INDICATES FEW OR NO CLOUDS BELOW 12,000 FEET WITH NO
SIGNIFICANT WEATHER AND/OR OBSTRUCTIONS TO VISIBILITY.

...SOUTH CENTRAL NEBRASKA...

CITY           SKY/WX    TMP DP  RH WIND       PRES   REMARKS
GRAND ISLAND   SUNNY     88  61  40 E12       29.99F
HASTINGS       SUNNY     86  67  52 NE9       29.99F
KEARNEY        SUNNY     86  66  51 E10       30.00F
ORD            SUNNY     89  54  30 NE5       29.99F
YORK           SUNNY     84  66  54 NE9       29.98S
AURORA         SUNNY     84  67  56 NE6       29.98F
LEXINGTON      SUNNY     87  66  49 E9        30.00F
HOLDREGE       SUNNY     86  64  48 NE6       30.00F
HEBRON         SUNNY     90  70  51 N7        29.94F HX  95

...NEBRASKA PANHANDLE...

CITY           SKY/WX    TMP DP  RH WIND       PRES   REMARKS
CHADRON        SUNNY     95  50  21 SE13      29.96F HX  92
ALLIANCE       SUNNY     95  38  13 CALM      30.02F HX  90
SCOTTSBLUFF    SUNNY     96  49  20 E13       30.01F HX  93
SIDNEY         SUNNY     94  38  14 SE10      30.08F

...WESTERN AND NORTH CENTRAL NEBRASKA...

CITY           SKY/WX    TMP DP  RH WIND       PRES   REMARKS
VALENTINE      SUNNY     95  44  17 E9        30.00F HX  91
AINSWORTH      SUNNY     88  53  29 E3        30.02F
ONEILL           N/A     84  58  42 NE3       30.01F
BROKEN BOW     SUNNY     90  57  32 E7        30.00F
IMPERIAL       SUNNY     96  42  15 SW7       30.02F HX  92
NORTH PLATTE   SUNNY     96  50  20 CALM      29.99F HX  93
MCCOOK         SUNNY     95  51  22 E9        29.99F HX  92

...EASTERN NEBRASKA...

CITY           SKY/WX    TMP DP  RH WIND       PRES   REMARKS
NORFOLK        SUNNY     85  54  34 N9        29.98F
SO SIOUX CITY  SUNNY     84  58  40 N13       29.96S
TEKAMAH        SUNNY     85  59  41 N10       29.95S
COLUMBUS       SUNNY     86  63  45 N8        29.98S
ALBION         SUNNY     86  60  41 E7        30.00S
OMAHA EPPLEY   MOSUNNY   88  58  36 N14       29.93F
OFFUTT AFB     SUNNY     87  60  40 N12       29.93F
MILLARD        SUNNY     89  62  40 N7        29.94S
LINCOLN        SUNNY     87  65  47 NE12      29.95F
NEBRASKA CITY  SUNNY     86  71  60 N7        29.93S HX  91
BEATRICE       SUNNY     90  69  49 NE10      29.93F HX  94
FALLS CITY     MOSUNNY   88  72  58 N9        29.90S HX  94

...NORTHERN KANSAS...

CITY           SKY/WX    TMP DP  RH WIND       PRES   REMARKS
GOODLAND       SUNNY     90  53  28 SE12G17   30.06F
HILL CITY      SUNNY     95  58  28 VRB7      29.98F HX  94
NORTON         CLEAR     93  48  21 E7        29.99S HX  90
PHILLIPSBURG   SUNNY     97  52  21 NE5       29.96F HX  94
SMITH CENTER   SUNNY     91  57  31 N9        29.96F HX  90
HAYS             N/A     95  58  28 E9        29.95F HX  94
RUSSELL        SUNNY     96  57  27 E8        29.93F HX  95
CONCORDIA      SUNNY     94  65  38 N10       29.92F HX  96
SALINA         MOSUNNY   97  61  30 NE10      29.90F HX  97
TOPEKA         SUNNY     92  72  51 E3        29.88F HX  99



USA.gov is the U.S. government's official web portal to all federal, state and local government web resources and services.